Location: San Antonio
(29.4240°N, 98.4930°W)
Time: 23:50:19
(UTC-05:00)

ISS - All Passes

Search period start: 27 July 2016 00:00
Search period end: 06 August 2016 00:00
Orbit: 401 x 404 km, 51.6° (Epoch: 27 July)

Date Brightness Start Highest point End Pass type
(mag) Time Alt. Az. Time Alt. Az. Time Alt. Az.
27 Jul - 04:34:29 10° N 04:35:51 12° NE 04:37:15 10° ENE visible
27 Jul - 06:09:20 10° NW 06:12:29 50° SW 06:15:39 10° SSE visible
27 Jul - 21:07:43 10° SW 21:10:57 89° NW 21:14:12 10° NE visible
28 Jul - 05:16:23 10° NW 05:19:36 62° NE 05:22:49 10° SE visible
28 Jul - 20:15:06 10° SSW 20:18:05 35° SE 20:21:06 10° ENE daylight
28 Jul - 21:52:36 10° WNW 21:54:36 15° NW 21:56:36 10° N visible
29 Jul - 04:23:47 10° NNW 04:26:37 27° NE 04:29:27 10° ESE visible
29 Jul - 06:00:42 10° W 06:02:52 17° SW 06:05:00 10° SSW visible
29 Jul - 19:23:19 10° SSE 19:25:19 15° SE 19:27:18 10° E daylight
29 Jul - 20:58:38 10° WSW 21:01:31 29° NW 21:04:25 10° NNE visible
30 Jul - 03:31:40 10° N 03:33:32 14° NE 03:35:23 10° ENE night (unlit)
30 Jul - 05:07:01 10° WNW 05:10:04 38° SW 05:13:07 10° SSE night (unlit)
30 Jul - 20:05:19 10° SW 20:08:33 68° NW 20:11:47 10° NE daylight
31 Jul - 04:13:57 10° NW 04:17:12 81° NE 04:20:26 10° SE night (unlit)
31 Jul - 19:12:33 10° SSW 19:15:39 45° SE 19:18:47 10° ENE daylight
31 Jul - 20:50:40 10° WNW 20:52:15 13° NW 20:53:50 10° N visible
01 Aug - 03:21:14 10° NNW 03:24:14 33° NE 03:27:13 10° ESE night (unlit)
01 Aug - 04:58:45 10° W 05:00:23 13° SW 05:02:01 10° SSW night (unlit)
01 Aug - 18:20:27 10° S 18:22:51 19° SE 18:25:14 10° E daylight
01 Aug - 19:56:26 10° W 19:59:08 24° NW 20:01:51 10° NNE daylight
02 Aug - 02:28:57 10° N 02:31:10 17° NE 02:33:22 10° E night (unlit)
02 Aug - 04:04:43 10° WNW 04:07:37 30° SW 04:10:30 10° SSE night (unlit)
02 Aug - 19:02:57 10° WSW 19:06:07 53° NW 19:09:18 10° NNE daylight
03 Aug - 03:11:30 10° NW 03:14:46 78° SW 03:17:59 10° SE night (unlit)
03 Aug - 18:10:00 10° SSW 18:13:12 60° SE 18:16:25 10° NE daylight
03 Aug - 19:48:57 10° NW 19:49:53 11° NW 19:50:49 10° NNW daylight
04 Aug - 02:18:42 10° NNW 02:21:49 41° NE 02:24:54 10° ESE night (unlit)
04 Aug - 03:57:15 10° WSW 03:57:54 10° SW 03:58:33 10° SW night (unlit)
04 Aug - 17:17:40 10° S 17:20:22 24° SE 17:23:03 10° ENE daylight
04 Aug - 18:54:14 10° W 18:56:43 20° NW 18:59:13 10° N daylight
05 Aug - 01:26:16 10° N 01:28:45 20° NE 01:31:15 10° E night (unlit)
05 Aug - 03:02:27 10° WNW 03:05:07 24° SW 03:07:48 10° S night (unlit)
05 Aug - 16:26:53 10° SE 16:27:35 11° SE 16:28:17 10° ESE daylight
05 Aug - 18:00:34 10° WSW 18:03:40 41° NW 18:06:47 10° NNE daylight
